Regional Weather Roundup
Issued by NWS

Home | Current Version | Previous Version | Text Only | Print | Product List | Glossary On
Versions: 1 2 3 4 5 6 7 8 9 10 11 12 13 14 15 16 17 18 19 20 21 22 23 24 25 26 27 28 29 30 31 32 33 34 35 36 37 38 39 40 41 42 43 44 45 46 47 48 49 50
000
ASUS43 KLMK 290102
RWRKY
KENTUCKY REGIONAL WEATHER ROUNDUP
NATIONAL WEATHER SERVICE LOUISVILLE KY
900 PM EDT SAT MAY 28 2016

NOTE "FAIR" INDICATES FEW OR NO CLOUDS BELOW 12,000 FEET
WITH NO SIGNIFICANT WEATHER AND/OR OBSTRUCTIONS TO VISIBILITY.

KYZ001>023-026-027-061>063-070>075-290200-
WESTERN AND SOUTH CENTRAL KENTUCKY

CITY           SKY/WX    TMP DP  RH WIND       PRES   REMARKS
PADUCAH        CLOUDY    78  66  66 S5        30.01R
HENDERSON      PTCLDY    77  64  65 S6        30.02R
OWENSBORO      MOCLDY    77  69  76 S7        30.05S
HOPKINSVILLE   NOT AVBL
BOWLING GREEN  CLOUDY    76  65  68 S5        30.08R
GLASGOW        NOT AVBL
$$

KYZ024-025-028>034-038-045-046-053-290200-
NORTH CENTRAL KENTUCKY

CITY           SKY/WX    TMP DP  RH WIND       PRES   REMARKS
LOUISVILLE/SDF CLOUDY    75  63  66 SE9       30.07S
LOUISVILLE/LOU CLOUDY    76  62  62 S5        30.08R
FORT KNOX      CLOUDY    71  67  85 SE5       30.07R
$$

KYZ035>037-039>044-047>052-055>060-089>105-290200-
NORTHEAST KENTUCKY

CITY           SKY/WX    TMP DP  RH WIND       PRES   REMARKS
LEXINGTON      PTCLDY    74  60  61 W5        30.11R
COVINGTON      MOCLDY    76  62  62 SW6       30.10R
FRANKFORT      MOCLDY    75  62  64 S3        30.09R
$$

KYZ054-064>069-076>088-106>120-290200-
SOUTHEAST KENTUCKY

CITY           SKY/WX    TMP DP  RH WIND       PRES   REMARKS
JACKSON        CLEAR     76  62  62 NW3       30.13S
LONDON         PTCLDY    78  62  57 CALM      30.12R
SOMERSET       NOT AVBL
MIDDLESBORO    PTCLDY    73  65  75 W3        30.12S
MONTICELLO     PTCLDY    72  68  87 NE12      30.13R
$$





USA.gov is the U.S. government's official web portal to all federal, state and local government web resources and services.